Voltar ao catálogo

ARIANE 5 R/B

AtivoGTO
NORAD 41946·ROCKET BODY·🇫🇷 France

Lançado Feb 14, 2017 de Guiana Space Centre

Loading…

TLE

EnvelhecendoSource: Space-Track

Época: Sep 14, 2026, 18:26 UTC

1 41946U 17007C   26257.76806180  .00003011  00000-0  10622-2 0  9995
2 41946   3.6397 246.5026 7162327 257.8910  20.2266  2.42401788 81574

Acompanhe ARIANE 5 R/B em tempo real com AllMySat

Download on the App Store